Weather History for Kimball, NE

Change the Weather History Date:

Monday, January 21, 2013

  Actual Average (KSNY) Record (KSNY)
Temperature  
Mean Temperature 32 °F 29 °F  
Max Temperature 52 °F 42 °F 68 °F (1950)
Min Temperature 12 °F 16 °F -23 °F (1966)
Degree Days  
Heating Degree Days 33 36  
Since 1 July heating degree days 3303  
Moisture  
Dew Point 12 °F    
Average Humidity 55    
Maximum Humidity 89    
Minimum Humidity 19    
Precipitation  
Precipitation 0.00 in 0.01 in 0.28 in (1988)
Month to date precipitation 0.13  
Year to date precipitation 0.13  
Sea Level Pressure  
Sea Level Pressure 30.09 in    
Wind  
Wind Speed 10 mph (WNW)    
Max Wind Speed 22 mph    
Max Gust Speed 30 mph    
Visibility 10 miles    
Events      
T = Trace of Precipitation, MM = Missing Value Source: NWS Daily Summary

Daily Weather History Graph

Daily Weather History Graph

Search for Another Location

Airport:

Trip Planner

Search our weather history database for the weather conditions in past years. The results will help you decide how hot, cold, wet, or windy it might be!

Date:

Astronomy

Jan. 21, 2013 Rise Set
Actual Time 8:14 AM CST 5:58 PM CST
Civil Twilight 7:44 AM CST 6:28 PM CST
Nautical Twilight 7:10 AM CST 7:01 PM CST
Astronomical Twilight 6:38 AM CST 7:34 PM CST
Moon 1:39 PM CST (1/21) 3:45 AM CST (1/21)
Length of Visible Light 10h 43m
Length of Day
9h 43m
Waxing Gibbous, 75% of the Moon is Illuminated
Jan 21
Waxing Gibbous
Jan 26
Full
Feb 3
Last Quarter
Feb 10
New
Feb 17
First Quarter

Hourly Weather History & Observations

Time (CST) Temp. Windchill Dew Point Humidity Pressure Visibility Wind Dir Wind Speed Gust Speed Precip Events Conditions
12:15 AM 14.9 °F 6.1 °F 12.0 °F 88% 30.21 in 10.0 mi West 5.8 mph - N/A   Clear
12:35 AM 13.8 °F 2.7 °F 10.6 °F 87% 30.21 in 10.0 mi West 8.1 mph - N/A   Clear
12:55 AM 13.3 °F 1.1 °F 10.6 °F 89% 30.20 in 10.0 mi West 9.2 mph - N/A   Clear
1:15 AM 13.1 °F 1.8 °F 10.0 °F 88% 30.20 in 10.0 mi WNW 8.1 mph - N/A   Clear
1:35 AM 14.7 °F 3.8 °F 12.0 °F 89% 30.19 in 10.0 mi West 8.1 mph - N/A   Clear
1:55 AM 14.0 °F 3.9 °F 11.1 °F 88% 30.19 in 10.0 mi WSW 6.9 mph - N/A   Clear
2:15 AM 12.6 °F 1.1 °F 9.7 °F 88% 30.19 in 10.0 mi WSW 8.1 mph - N/A   Clear
2:35 AM 12.7 °F 1.4 °F 10.0 °F 89% 30.18 in 10.0 mi West 8.1 mph - N/A   Clear
2:55 AM 13.1 °F 2.8 °F 10.2 °F 88% 30.18 in 10.0 mi West 6.9 mph - N/A   Clear
3:15 AM 13.1 °F 0.9 °F 10.4 °F 89% 30.18 in 10.0 mi WSW 9.2 mph - N/A   Clear
3:35 AM 15.3 °F 3.5 °F 12.2 °F 88% 30.17 in 10.0 mi West 9.2 mph - N/A   Clear
3:55 AM 17.2 °F 3.9 °F 14.0 °F 87% 30.17 in 10.0 mi WSW 12.7 mph - N/A   Clear
4:15 AM 18.1 °F 5.6 °F 14.4 °F 85% 30.17 in 10.0 mi West 11.5 mph - N/A   Clear
4:35 AM 16.7 °F 8.3 °F 13.1 °F 86% 30.16 in 10.0 mi West 5.8 mph - N/A   Clear
4:55 AM 14.9 °F 4.0 °F 11.7 °F 87% 30.15 in 10.0 mi WNW 8.1 mph - N/A   Clear
5:15 AM 14.7 °F 3.8 °F 11.7 °F 88% 30.14 in 10.0 mi West 8.1 mph - N/A   Clear
5:35 AM 13.6 °F 3.5 °F 10.4 °F 87% 30.14 in 10.0 mi West 6.9 mph - N/A   Clear
5:55 AM 15.8 °F 4.2 °F 12.6 °F 87% 30.13 in 10.0 mi WSW 9.2 mph - N/A   Clear
6:15 AM 15.6 °F 3.2 °F 12.0 °F 86% 30.13 in 10.0 mi WSW 10.4 mph - N/A   Clear
6:35 AM 15.8 °F 3.4 °F 12.2 °F 86% 30.12 in 10.0 mi WSW 10.4 mph - N/A   Clear
6:55 AM 15.6 °F 3.2 °F 12.0 °F 86% 30.12 in 10.0 mi WSW 10.4 mph - N/A   Clear
7:15 AM 14.9 °F 3.1 °F 11.5 °F 86% 30.11 in 10.0 mi WSW 9.2 mph - N/A   Clear
7:35 AM 15.6 °F 1.8 °F 10.9 °F 82% 30.10 in 10.0 mi WSW 12.7 mph - N/A   Clear
7:55 AM 16.2 °F 5.5 °F 10.9 °F 80% 30.10 in 10.0 mi WSW 8.1 mph - N/A   Clear
8:15 AM 18.3 °F 4.6 °F 12.9 °F 79% 30.08 in 10.0 mi WSW 13.8 mph - N/A   Clear
8:35 AM 20.5 °F 6.9 °F 13.6 °F 75% 30.08 in 10.0 mi West 15.0 mph - N/A   Clear
8:55 AM 23.4 °F 10.6 °F 16.0 °F 73% 30.08 in 10.0 mi West 15.0 mph - N/A   Clear
9:15 AM 26.1 °F 14.5 °F 18.7 °F 74% 30.08 in 10.0 mi West 13.8 mph 18.4 mph N/A   Clear
9:35 AM 28.4 °F 17.5 °F 19.9 °F 71% 30.08 in 10.0 mi West 13.8 mph - N/A   Clear
9:55 AM 31.5 °F 22.9 °F 21.6 °F 67% 30.09 in 10.0 mi West 10.4 mph - N/A   Clear
10:15 AM 35.1 °F 25.9 °F 19.2 °F 53% 30.10 in 10.0 mi West 13.8 mph 19.6 mph N/A   Clear
10:35 AM 37.2 °F 28.3 °F 18.1 °F 46% 30.11 in 10.0 mi WNW 15.0 mph - N/A   Clear
10:55 AM 37.4 °F 29.3 °F 19.0 °F 48% 30.12 in 10.0 mi WNW 12.7 mph - N/A   Clear
11:15 AM 40.5 °F 34.1 °F 16.7 °F 38% 30.13 in 10.0 mi NW 10.4 mph - N/A   Clear
11:35 AM 39.7 °F 32.7 °F 18.0 °F 42% 30.13 in 10.0 mi NNE 11.5 mph 23.0 mph N/A   Clear
11:55 AM 37.8 °F 31.3 °F 15.6 °F 41% 30.12 in 10.0 mi NNE 9.2 mph - N/A   Clear
12:15 PM 40.3 °F 36.3 °F 14.5 °F 35% 30.11 in 10.0 mi NNE 5.8 mph - N/A   Clear
12:35 PM 42.4 °F 38.1 °F 14.2 °F 32% 30.10 in 10.0 mi NNW 6.9 mph - N/A   Clear
12:55 PM 46.0 °F 42.5 °F 13.6 °F 27% 30.08 in 10.0 mi NW 6.9 mph - N/A   Clear
1:15 PM 48.6 °F - 13.8 °F 25% 30.06 in 10.0 mi NW 16.1 mph 19.6 mph N/A   Clear
1:35 PM 51.1 °F - 12.9 °F 22% 30.05 in 10.0 mi NW 20.7 mph 25.3 mph N/A   Clear
1:55 PM 51.8 °F - 12.4 °F 21% 30.04 in 10.0 mi NW 21.9 mph 29.9 mph N/A   Clear
2:15 PM 51.4 °F - 12.2 °F 21% 30.04 in 10.0 mi NW 19.6 mph 28.8 mph N/A   Clear
2:35 PM 52.0 °F - 12.0 °F 20% 30.03 in 10.0 mi NW 17.3 mph 27.6 mph N/A   Clear
2:55 PM 51.8 °F - 11.3 °F 20% 30.03 in 10.0 mi NW 18.4 mph 27.6 mph N/A   Clear
3:15 PM 51.8 °F - 11.3 °F 20% 30.02 in 10.0 mi NNW 18.4 mph 26.5 mph N/A   Clear
3:35 PM 51.8 °F - 10.9 °F 19% 30.02 in 10.0 mi NW 19.6 mph 28.8 mph N/A   Clear
3:55 PM 51.8 °F - 10.4 °F 19% 30.03 in 10.0 mi NW 18.4 mph 26.5 mph N/A   Scattered Clouds
4:15 PM 51.1 °F - 10.4 °F 20% 30.02 in 10.0 mi NW 17.3 mph 27.6 mph N/A   Scattered Clouds
4:35 PM 50.5 °F - 10.8 °F 20% 30.02 in 10.0 mi NW 15.0 mph 23.0 mph N/A   Clear
5:15 PM 49.5 °F - 11.3 °F 22% 30.02 in 10.0 mi NW 16.1 mph 21.9 mph N/A   Clear
5:35 PM 47.7 °F - 10.9 °F 23% 30.02 in 10.0 mi NW 9.2 mph - N/A   Scattered Clouds
5:55 PM 44.2 °F 40.3 °F 11.1 °F 26% 30.02 in 10.0 mi NNW 6.9 mph - N/A   Clear
6:15 PM 42.4 °F 38.1 °F 11.3 °F 28% 30.02 in 10.0 mi NNW 6.9 mph - N/A   Clear
6:35 PM 41.2 °F 39.2 °F 11.3 °F 30% 30.03 in 10.0 mi NW 3.5 mph - N/A   Scattered Clouds
6:55 PM 39.7 °F 34.9 °F 11.3 °F 31% 30.04 in 10.0 mi WNW 6.9 mph - N/A   Scattered Clouds
7:15 PM 36.0 °F 30.3 °F 10.4 °F 35% 30.03 in 10.0 mi WNW 6.9 mph - N/A   Scattered Clouds
7:35 PM 35.8 °F 31.9 °F 9.9 °F 34% 30.03 in 10.0 mi NW 4.6 mph - N/A   Mostly Cloudy
7:55 PM 31.3 °F 23.3 °F 10.4 °F 42% 30.03 in 10.0 mi WNW 9.2 mph - N/A   Mostly Cloudy
8:15 PM 30.9 °F 22.2 °F 10.9 °F 43% 30.02 in 10.0 mi WNW 10.4 mph - N/A   Scattered Clouds
8:35 PM 34.5 °F 26.7 °F 9.9 °F 36% 30.02 in 10.0 mi WNW 10.4 mph - N/A   Clear
8:55 PM 29.3 °F 20.2 °F 10.2 °F 45% 30.02 in 10.0 mi WSW 10.4 mph - N/A   Clear
9:15 PM 30.7 °F 24.1 °F 10.2 °F 42% 30.03 in 10.0 mi West 6.9 mph - N/A   Clear
9:35 PM 32.4 °F 22.5 °F 10.2 °F 40% 30.02 in 10.0 mi West 13.8 mph - N/A   Clear
9:55 PM 34.9 °F 26.2 °F 10.2 °F 36% 30.03 in 10.0 mi West 12.7 mph - N/A   Clear
10:15 PM 33.6 °F 25.6 °F 10.4 °F 38% 30.02 in 10.0 mi West 10.4 mph - N/A   Clear
10:35 PM 31.1 °F 23.1 °F 10.4 °F 42% 30.02 in 10.0 mi West 9.2 mph - N/A   Clear
10:55 PM 29.3 °F 20.8 °F 10.4 °F 45% 30.02 in 10.0 mi West 9.2 mph - N/A   Clear
11:15 PM 29.3 °F 19.1 °F 10.4 °F 45% 30.02 in 10.0 mi West 12.7 mph - N/A   Clear
11:35 PM 31.1 °F 21.4 °F 9.5 °F 41% 30.03 in 10.0 mi West 12.7 mph - N/A   Clear
11:55 PM 32.9 °F 23.2 °F 8.6 °F 36% 30.02 in 10.0 mi West 13.8 mph - N/A   Clear